DLA109 SACO-SUMU

Flight info

Callsign DLA109
Flight time 1h 9m
Altitude 37000
Route GENAS1C GENAS UW6 PAR UL417 NIMBO
Aircraft B738/M-SDE2E3FGHIRWXY/LB1

Departure

Time 2026-04-25 03:37
Airport Ingeniero Aeronáutico Ambrosio L.V. Taravella International Airport (SACO)

Arrival

Time 2026-04-25 04:46
Airport Carrasco General Cesáreo L. Berisso International Airport (SUMU)
Time Latitude Longitude Altitude Speed Heading
2026-04-25 03:26 -31.31487 -64.21182 1612 ft 0 kts 259°
2026-04-25 03:29 -31.31486 -64.21178 1616 ft 3 kts 259°
2026-04-25 03:30 -31.31481 -64.21148 1615 ft 4 kts 259°
2026-04-25 03:30 -31.31477 -64.21117 1618 ft 4 kts 271°
2026-04-25 03:30 -31.31481 -64.21091 1617 ft 4 kts 296°
2026-04-25 03:30 -31.31496 -64.21077 1622 ft 4 kts
2026-04-25 03:31 -31.31520 -64.21081 1620 ft 2 kts
2026-04-25 03:31 -31.31526 -64.21081 1619 ft 0 kts
2026-04-25 03:33 -31.31516 -64.21081 1617 ft 5 kts
2026-04-25 03:33 -31.31470 -64.21035 1619 ft 16 kts 80°
2026-04-25 03:33 -31.31450 -64.20868 1616 ft 23 kts 56°
2026-04-25 03:34 -31.31303 -64.20830 1613 ft 22 kts 358°
2026-04-25 03:34 -31.31112 -64.20828 1613 ft 34 kts
2026-04-25 03:34 -31.30885 -64.20838 1614 ft 33 kts 358°
2026-04-25 03:34 -31.30643 -64.20840 1616 ft 37 kts 359°
2026-04-25 03:35 -31.30391 -64.20847 1619 ft 35 kts
2026-04-25 03:35 -31.30150 -64.20852 1616 ft 36 kts 356°
2026-04-25 03:35 -31.29894 -64.20857 1618 ft 37 kts 359°
2026-04-25 03:35 -31.29677 -64.20873 1612 ft 23 kts 340°
2026-04-25 03:36 -31.29591 -64.20856 1611 ft 6 kts 122°
2026-04-25 03:36 -31.29669 -64.20854 1615 ft 30 kts 179°
2026-04-25 03:36 -31.30104 -64.20848 1620 ft 99 kts 179°
2026-04-25 03:36 -31.31006 -64.20836 1616 ft 158 kts 180°
2026-04-25 03:37 -31.32188 -64.20834 2074 ft 174 kts 179°
2026-04-25 03:37 -31.33368 -64.20637 2891 ft 176 kts 156°
2026-04-25 03:37 -31.34281 -64.19677 3528 ft 184 kts 119°
2026-04-25 03:37 -31.34753 -64.18247 4037 ft 198 kts 108°
2026-04-25 03:38 -31.35250 -64.16625 4345 ft 222 kts 110°
2026-04-25 03:38 -31.35837 -64.14888 4614 ft 240 kts 112°
2026-04-25 03:38 -31.36494 -64.13075 5169 ft 244 kts 113°
2026-04-25 03:38 -31.37198 -64.11220 5874 ft 247 kts 113°
2026-04-25 03:39 -31.37892 -64.09429 6693 ft 244 kts 114°
2026-04-25 03:39 -31.38607 -64.07601 7332 ft 250 kts 114°
2026-04-25 03:39 -31.39332 -64.05748 8011 ft 253 kts 113°
2026-04-25 03:39 -31.39703 -64.03714 8517 ft 266 kts 91°
2026-04-25 03:40 -31.39673 -64.01451 8787 ft 287 kts 89°
2026-04-25 03:40 -31.39615 -63.99075 9367 ft 296 kts 89°
2026-04-25 03:40 -31.39561 -63.96646 10064 ft 301 kts 90°
2026-04-25 03:40 -31.39514 -63.94145 10412 ft 318 kts 90°
2026-04-25 03:41 -31.39471 -63.91463 10584 ft 340 kts 90°
2026-04-25 03:41 -31.39430 -63.88642 10989 ft 352 kts 90°
2026-04-25 03:41 -31.39389 -63.85757 11580 ft 357 kts 90°
2026-04-25 03:41 -31.39349 -63.82824 12224 ft 362 kts 91°
2026-04-25 03:42 -31.39323 -63.80869 12673 ft 364 kts 90°
2026-04-25 03:42 -31.39267 -63.76879 13568 ft 370 kts 90°
2026-04-25 03:42 -31.39238 -63.74870 13970 ft 375 kts 90°
2026-04-25 03:42 -31.39193 -63.71797 14529 ft 381 kts 90°
2026-04-25 03:43 -31.39147 -63.68674 15121 ft 387 kts 90°
2026-04-25 03:43 -31.39100 -63.65496 15705 ft 393 kts 90°
2026-04-25 03:43 -31.39108 -63.62285 16338 ft 397 kts 96°
2026-04-25 03:43 -31.39495 -63.59074 16939 ft 401 kts 103°
2026-04-25 03:44 -31.40036 -63.55847 17515 ft 407 kts 104°
2026-04-25 03:44 -31.40610 -63.52581 18087 ft 413 kts 104°
2026-04-25 03:44 -31.41181 -63.49259 18633 ft 418 kts 103°
2026-04-25 03:44 -31.41735 -63.45892 19129 ft 424 kts 103°
2026-04-25 03:45 -31.42279 -63.42477 19631 ft 429 kts 102°
2026-04-25 03:45 -31.42815 -63.39020 20167 ft 434 kts 102°
2026-04-25 03:45 -31.43351 -63.35527 20635 ft 440 kts 102°
2026-04-25 03:45 -31.43892 -63.31981 21085 ft 446 kts 102°
2026-04-25 03:46 -31.44441 -63.28381 21557 ft 451 kts 102°
2026-04-25 03:46 -31.44993 -63.24748 22021 ft 456 kts 102°
2026-04-25 03:46 -31.45552 -63.21070 22468 ft 462 kts 102°
2026-04-25 03:46 -31.46119 -63.17347 22914 ft 467 kts 102°
2026-04-25 03:47 -31.46687 -63.13588 23347 ft 472 kts 101°
2026-04-25 03:47 -31.47240 -63.09769 23715 ft 478 kts 101°
2026-04-25 03:47 -31.47780 -63.05909 24095 ft 482 kts 101°
2026-04-25 03:47 -31.48316 -63.02019 24553 ft 484 kts 101°
2026-04-25 03:48 -31.48851 -62.98116 24955 ft 487 kts 101°
2026-04-25 03:48 -31.49383 -62.94236 25316 ft 491 kts 101°
2026-04-25 03:48 -31.49928 -62.90267 25679 ft 495 kts 101°
2026-04-25 03:48 -31.50479 -62.86261 26048 ft 498 kts 100°
2026-04-25 03:49 -31.51032 -62.82242 26404 ft 502 kts 100°
2026-04-25 03:49 -31.51587 -62.78196 26742 ft 505 kts 100°
2026-04-25 03:49 -31.52148 -62.74109 27082 ft 509 kts 100°
2026-04-25 03:49 -31.52709 -62.70002 27426 ft 512 kts 100°
2026-04-25 03:50 -31.53272 -62.65868 27764 ft 515 kts 100°
2026-04-25 03:50 -31.53838 -62.61709 28092 ft 519 kts 100°
2026-04-25 03:50 -31.54407 -62.57514 28415 ft 522 kts 100°
2026-04-25 03:50 -31.54976 -62.53305 28737 ft 525 kts 100°
2026-04-25 03:51 -31.55548 -62.49065 29044 ft 528 kts 100°
2026-04-25 03:51 -31.56121 -62.44804 29350 ft 531 kts 100°
2026-04-25 03:51 -31.56697 -62.40517 29642 ft 534 kts 99°
2026-04-25 03:51 -31.57275 -62.36200 29954 ft 537 kts 99°
2026-04-25 03:52 -31.57847 -62.31911 30196 ft 541 kts 99°
2026-04-25 03:52 -31.58430 -62.27534 30426 ft 544 kts 99°
2026-04-25 03:52 -31.59006 -62.23196 30647 ft 547 kts 99°
2026-04-25 03:52 -31.59592 -62.18776 30846 ft 550 kts 99°
2026-04-25 03:53 -31.60177 -62.14342 31048 ft 553 kts 99°
2026-04-25 03:53 -31.60766 -62.09869 31247 ft 556 kts 99°
2026-04-25 03:53 -31.61355 -62.05385 31493 ft 557 kts 99°
2026-04-25 03:53 -31.61944 -62.00884 31785 ft 557 kts 99°
2026-04-25 03:54 -31.63125 -61.91826 31852 ft 564 kts 99°
2026-04-25 03:54 -31.64298 -61.82777 31837 ft 557 kts 99°
2026-04-25 03:55 -31.65455 -61.73799 31858 ft 556 kts 99°
2026-04-25 03:55 -31.66606 -61.64808 31848 ft 558 kts 99°
2026-04-25 03:56 -31.67754 -61.55801 31848 ft 558 kts 99°
2026-04-25 03:56 -31.68886 -61.46844 31844 ft 559 kts 99°
2026-04-25 03:57 -31.70015 -61.37816 31844 ft 559 kts 99°
2026-04-25 03:57 -31.71136 -61.28774 31838 ft 560 kts 98°
2026-04-25 03:58 -31.72253 -61.19724 31842 ft 560 kts 98°
2026-04-25 03:58 -31.73362 -61.10673 31842 ft 560 kts 98°
2026-04-25 03:59 -31.74468 -61.01607 31836 ft 561 kts 98°
2026-04-25 03:59 -31.75567 -60.92535 31826 ft 561 kts 98°
2026-04-25 04:00 -31.76658 -60.83471 31840 ft 560 kts 98°
2026-04-25 04:00 -31.77744 -60.74394 31835 ft 560 kts 98°
2026-04-25 04:01 -31.78820 -60.65331 31847 ft 560 kts 98°
2026-04-25 04:01 -31.79893 -60.56331 31849 ft 559 kts 100°
2026-04-25 04:02 -31.82171 -60.47646 31856 ft 554 kts 118°
2026-04-25 04:02 -31.86159 -60.40013 31853 ft 543 kts 134°
2026-04-25 04:03 -31.90849 -60.33065 31846 ft 543 kts 135°
2026-04-25 04:03 -31.95524 -60.26100 31841 ft 543 kts 134°
2026-04-25 04:04 -32.00153 -60.19071 32012 ft 547 kts 134°
2026-04-25 04:04 -32.02469 -60.15524 32383 ft 545 kts 134°
2026-04-25 04:04 -32.04773 -60.11987 32773 ft 543 kts 134°
2026-04-25 04:05 -32.07068 -60.08460 33156 ft 541 kts 134°
2026-04-25 04:05 -32.09357 -60.04943 33500 ft 540 kts 134°
2026-04-25 04:05 -32.11648 -60.01425 33806 ft 540 kts 134°
2026-04-25 04:05 -32.13941 -59.97904 34081 ft 541 kts 134°
2026-04-25 04:06 -32.16231 -59.94383 34364 ft 540 kts 134°
2026-04-25 04:06 -32.18513 -59.90870 34756 ft 537 kts 134°
2026-04-25 04:06 -32.20784 -59.87369 35008 ft 538 kts 134°
2026-04-25 04:06 -32.23040 -59.83893 35121 ft 541 kts 134°
2026-04-25 04:07 -32.25330 -59.80365 35253 ft 543 kts 134°
2026-04-25 04:07 -32.27632 -59.76811 35427 ft 545 kts 134°
2026-04-25 04:07 -32.29933 -59.73252 35656 ft 545 kts 134°
2026-04-25 04:07 -32.32227 -59.69698 35907 ft 544 kts 134°
2026-04-25 04:08 -32.34525 -59.66134 36203 ft 543 kts 134°
2026-04-25 04:08 -32.36811 -59.62586 36495 ft 541 kts 134°
2026-04-25 04:08 -32.39091 -59.59045 36704 ft 541 kts 134°
2026-04-25 04:08 -32.41378 -59.55492 36865 ft 543 kts 134°
2026-04-25 04:09 -32.43665 -59.51938 37032 ft 544 kts 134°
2026-04-25 04:09 -32.45957 -59.48369 37224 ft 544 kts 134°
2026-04-25 04:09 -32.48242 -59.44805 37442 ft 544 kts 134°
2026-04-25 04:09 -32.50524 -59.41243 37651 ft 544 kts 135°
2026-04-25 04:10 -32.52819 -59.37661 37838 ft 544 kts 135°
2026-04-25 04:10 -32.55107 -59.34086 38013 ft 544 kts 135°
2026-04-25 04:10 -32.57394 -59.30504 38205 ft 544 kts 135°
2026-04-25 04:10 -32.59668 -59.26934 38423 ft 543 kts 135°
2026-04-25 04:11 -32.64177 -59.19840 38841 ft 541 kts 135°
2026-04-25 04:11 -32.66441 -59.16274 39045 ft 540 kts 135°
2026-04-25 04:12 -32.70970 -59.09131 39044 ft 541 kts 134°
2026-04-25 04:12 -32.75465 -59.02023 39011 ft 537 kts 134°
2026-04-25 04:13 -32.79932 -58.94949 39036 ft 533 kts 134°
2026-04-25 04:13 -32.84378 -58.87900 39087 ft 532 kts 134°
2026-04-25 04:14 -32.88816 -58.80848 39049 ft 532 kts 134°
2026-04-25 04:14 -32.93247 -58.73790 39041 ft 533 kts 134°
2026-04-25 04:15 -32.97677 -58.66719 39048 ft 533 kts 134°
2026-04-25 04:15 -33.02148 -58.59662 39039 ft 532 kts 136°
2026-04-25 04:16 -33.06945 -58.52992 39044 ft 529 kts 140°
2026-04-25 04:16 -33.11829 -58.46481 39030 ft 530 kts 139°
2026-04-25 04:17 -33.16713 -58.39862 39077 ft 532 kts 138°
2026-04-25 04:17 -33.21564 -58.33180 39044 ft 534 kts 138°
2026-04-25 04:17 -33.23999 -58.29813 38792 ft 539 kts 138°
2026-04-25 04:18 -33.26460 -58.26411 38205 ft 541 kts 138°
2026-04-25 04:18 -33.28913 -58.23012 37631 ft 539 kts 138°
2026-04-25 04:18 -33.31352 -58.19628 37146 ft 535 kts 138°
2026-04-25 04:18 -33.33773 -58.16266 36677 ft 533 kts 137°
2026-04-25 04:19 -33.36190 -58.12913 36050 ft 533 kts 137°
2026-04-25 04:19 -33.38621 -58.09542 35375 ft 535 kts 137°
2026-04-25 04:19 -33.41060 -58.06157 34735 ft 536 kts 137°
2026-04-25 04:19 -33.43495 -58.02770 34071 ft 538 kts 137°
2026-04-25 04:20 -33.45943 -57.99362 33309 ft 540 kts 137°
2026-04-25 04:20 -33.48385 -57.95954 32686 ft 538 kts 136°
2026-04-25 04:20 -33.50810 -57.92566 32185 ft 533 kts 136°
2026-04-25 04:20 -33.53217 -57.89203 31722 ft 527 kts 136°
2026-04-25 04:21 -33.55577 -57.85895 31471 ft 517 kts 136°
2026-04-25 04:21 -33.57890 -57.82648 31125 ft 510 kts 136°
2026-04-25 04:21 -33.60154 -57.79471 30693 ft 505 kts 136°
2026-04-25 04:21 -33.62454 -57.76240 30242 ft 501 kts 136°
2026-04-25 04:22 -33.64683 -57.73105 29802 ft 497 kts 135°
2026-04-25 04:22 -33.66903 -57.69977 29495 ft 488 kts 135°
2026-04-25 04:22 -33.69093 -57.66890 29020 ft 483 kts 135°
2026-04-25 04:22 -33.71263 -57.63829 28535 ft 478 kts 135°
2026-04-25 04:23 -33.73407 -57.60802 28066 ft 474 kts 135°
2026-04-25 04:23 -33.75533 -57.57797 27592 ft 470 kts 135°
2026-04-25 04:23 -33.77635 -57.54822 27129 ft 466 kts 135°
2026-04-25 04:23 -33.79729 -57.51857 26686 ft 462 kts 134°
2026-04-25 04:24 -33.81798 -57.48923 26214 ft 459 kts 134°
2026-04-25 04:24 -33.83858 -57.46000 25763 ft 456 kts 134°
2026-04-25 04:24 -33.85897 -57.43103 25313 ft 452 kts 134°
2026-04-25 04:24 -33.87926 -57.40221 24856 ft 449 kts 134°
2026-04-25 04:25 -33.89939 -57.37359 24424 ft 445 kts 134°
2026-04-25 04:25 -33.91920 -57.34549 24197 ft 436 kts 134°
2026-04-25 04:25 -33.93875 -57.31779 23844 ft 432 kts 134°
2026-04-25 04:25 -33.95815 -57.29031 23430 ft 429 kts 134°
2026-04-25 04:26 -33.97715 -57.26337 22955 ft 427 kts 134°
2026-04-25 04:26 -33.99630 -57.23617 22467 ft 424 kts 134°
2026-04-25 04:26 -34.01527 -57.20921 22014 ft 421 kts 133°
2026-04-25 04:26 -34.03413 -57.18235 21563 ft 417 kts 133°
2026-04-25 04:27 -34.05280 -57.15575 21130 ft 414 kts 133°
2026-04-25 04:27 -34.07129 -57.12938 20692 ft 411 kts 133°
2026-04-25 04:27 -34.08967 -57.10314 20250 ft 407 kts 133°
2026-04-25 04:27 -34.10793 -57.07707 19826 ft 404 kts 133°
2026-04-25 04:28 -34.12598 -57.05127 19408 ft 401 kts 133°
2026-04-25 04:28 -34.14390 -57.02564 18990 ft 398 kts 133°
2026-04-25 04:28 -34.16140 -57.00059 18581 ft 395 kts 133°
2026-04-25 04:28 -34.17903 -56.97533 18134 ft 392 kts 133°
2026-04-25 04:29 -34.19650 -56.95028 17656 ft 388 kts 133°
2026-04-25 04:29 -34.21385 -56.92538 17229 ft 385 kts 132°
2026-04-25 04:29 -34.23094 -56.90084 16804 ft 381 kts 132°
2026-04-25 04:29 -34.24796 -56.87640 16405 ft 377 kts 132°
2026-04-25 04:30 -34.26455 -56.85258 16026 ft 373 kts 132°
2026-04-25 04:30 -34.28104 -56.82887 15786 ft 365 kts 131°
2026-04-25 04:30 -34.29722 -56.80560 15532 ft 358 kts 131°
2026-04-25 04:30 -34.31332 -56.78245 15214 ft 354 kts 131°
2026-04-25 04:31 -34.32866 -56.76034 14847 ft 351 kts 131°
2026-04-25 04:31 -34.34435 -56.73774 14466 ft 350 kts 131°
2026-04-25 04:31 -34.35995 -56.71524 14084 ft 348 kts 131°
2026-04-25 04:31 -34.37546 -56.69284 13679 ft 347 kts 131°
2026-04-25 04:32 -34.39089 -56.67053 13248 ft 345 kts 131°
2026-04-25 04:32 -34.40629 -56.64826 12840 ft 343 kts 131°
2026-04-25 04:32 -34.42153 -56.62622 12451 ft 341 kts 131°
2026-04-25 04:32 -34.43674 -56.60418 12053 ft 339 kts 131°
2026-04-25 04:33 -34.44675 -56.58968 11803 ft 338 kts 131°
2026-04-25 04:33 -34.46177 -56.56790 11415 ft 336 kts 130°
2026-04-25 04:33 -34.47671 -56.54625 11050 ft 334 kts 130°
2026-04-25 04:33 -34.49154 -56.52473 10674 ft 332 kts 130°
2026-04-25 04:34 -34.50633 -56.50380 10539 ft 321 kts 136°
2026-04-25 04:34 -34.52403 -56.48828 10391 ft 311 kts 156°
2026-04-25 04:34 -34.54392 -56.47908 10285 ft 301 kts 162°
2026-04-25 04:34 -34.56357 -56.47136 10150 ft 292 kts 163°
2026-04-25 04:35 -34.58270 -56.46405 10009 ft 285 kts 164°
2026-04-25 04:35 -34.60161 -56.45681 9700 ft 284 kts 164°
2026-04-25 04:35 -34.62039 -56.44954 9410 ft 283 kts 163°
2026-04-25 04:35 -34.63910 -56.44224 9123 ft 281 kts 163°
2026-04-25 04:36 -34.65763 -56.43496 8829 ft 280 kts 163°
2026-04-25 04:36 -34.67572 -56.42782 8555 ft 278 kts 163°
2026-04-25 04:36 -34.69438 -56.42042 8268 ft 277 kts 163°
2026-04-25 04:36 -34.71261 -56.41319 8010 ft 275 kts 163°
2026-04-25 04:37 -34.73084 -56.40593 7703 ft 275 kts 163°
2026-04-25 04:37 -34.74895 -56.39871 7437 ft 274 kts 163°
2026-04-25 04:37 -34.76704 -56.39151 7164 ft 273 kts 163°
2026-04-25 04:37 -34.78510 -56.38431 6881 ft 272 kts 163°
2026-04-25 04:38 -34.80310 -56.37713 6564 ft 273 kts 163°
2026-04-25 04:38 -34.82096 -56.37000 6245 ft 274 kts 163°
2026-04-25 04:38 -34.83902 -56.36278 5942 ft 273 kts 163°
2026-04-25 04:38 -34.85711 -56.35554 5644 ft 273 kts 163°
2026-04-25 04:39 -34.87498 -56.34838 5350 ft 267 kts 163°
2026-04-25 04:39 -34.89233 -56.34143 5082 ft 258 kts 163°
2026-04-25 04:39 -34.90909 -56.33472 4859 ft 249 kts 163°
2026-04-25 04:39 -34.92526 -56.32825 4637 ft 239 kts 162°
2026-04-25 04:40 -34.94054 -56.32213 4431 ft 225 kts 162°
2026-04-25 04:40 -34.95502 -56.31633 4241 ft 213 kts 163°
2026-04-25 04:40 -34.96883 -56.31080 4053 ft 205 kts 163°
2026-04-25 04:40 -34.98109 -56.30252 3957 ft 205 kts 130°
2026-04-25 04:41 -34.98663 -56.28674 3912 ft 207 kts 91°
2026-04-25 04:41 -34.98343 -56.26995 3846 ft 205 kts 58°
2026-04-25 04:41 -34.97535 -56.25584 3765 ft 202 kts 51°
2026-04-25 04:41 -34.96704 -56.24224 3658 ft 198 kts 51°
2026-04-25 04:42 -34.95893 -56.22896 3551 ft 193 kts 50°
2026-04-25 04:42 -34.95093 -56.21565 3355 ft 195 kts 51°
2026-04-25 04:42 -34.94308 -56.20255 3157 ft 193 kts 50°
2026-04-25 04:42 -34.93512 -56.18941 2937 ft 191 kts 50°
2026-04-25 04:43 -34.92728 -56.17653 2750 ft 188 kts 50°
2026-04-25 04:43 -34.91952 -56.16382 2563 ft 186 kts 50°
2026-04-25 04:43 -34.91181 -56.15120 2369 ft 187 kts 50°
2026-04-25 04:43 -34.90401 -56.13842 2126 ft 188 kts 50°
2026-04-25 04:44 -34.89624 -56.12568 1871 ft 184 kts 51°
2026-04-25 04:44 -34.88885 -56.11356 1670 ft 169 kts 51°
2026-04-25 04:44 -34.88218 -56.10262 1426 ft 153 kts 51°
2026-04-25 04:44 -34.87617 -56.09278 1241 ft 141 kts 51°
2026-04-25 04:45 -34.87042 -56.08336 1056 ft 137 kts 51°
2026-04-25 04:45 -34.86465 -56.07392 877 ft 141 kts 52°
2026-04-25 04:45 -34.85877 -56.06429 686 ft 142 kts 52°
2026-04-25 04:45 -34.85293 -56.05469 486 ft 141 kts 53°
2026-04-25 04:46 -34.84711 -56.04514 309 ft 140 kts 53°
2026-04-25 04:46 -34.84126 -56.03554 109 ft 142 kts 53°
2026-04-25 04:46 -34.83575 -56.02651 84 ft 121 kts 53°
2026-04-25 04:46 -34.83222 -56.02070 91 ft 21 kts 54°
2026-04-25 04:47 -34.83234 -56.01950 93 ft 18 kts 143°
2026-04-25 04:47 -34.83362 -56.01837 96 ft 28 kts 142°
2026-04-25 04:47 -34.83503 -56.01770 94 ft 16 kts 231°
2026-04-25 04:47 -34.83525 -56.01810 95 ft 1 kts 234°
2026-04-25 04:48 -34.83536 -56.01830 93 ft 9 kts 234°
2026-04-25 04:48 -34.83587 -56.01913 91 ft 13 kts 224°
2026-04-25 04:48 -34.83622 -56.01911 90 ft 0 kts 141°
2026-04-25 04:48 -34.83634 -56.01898 91 ft 7 kts 140°
2026-04-25 04:49 -34.83657 -56.01861 91 ft 4 kts 113°
2026-04-25 04:49 -34.83660 -56.01854 91 ft 0 kts 114°
2026-04-25 04:51 -34.98234 -56.26768 3843 ft 204 kts 55°
2026-04-25 04:51 -34.97493 -56.25516 3758 ft 202 kts 51°
2026-04-25 04:51 -34.96758 -56.24312 3665 ft 198 kts 51°
2026-04-25 04:51 -34.96044 -56.23144 3572 ft 194 kts 50°
2026-04-25 04:52 -34.95385 -56.22054 3431 ft 195 kts 51°
2026-04-25 04:52 -34.94686 -56.20883 3254 ft 194 kts 50°
2026-04-25 04:52 -34.94046 -56.19821 3092 ft 193 kts 50°
2026-04-25 04:52 -34.86878 -56.08069 1005 ft 138 kts 52°
2026-04-25 04:53 -34.86447 -56.07363 872 ft 147 kts 52°
2026-04-25 04:53 -34.86378 -56.07250 840 ft 141 kts 52°
2026-04-25 04:53 -34.85818 -56.06332 666 ft 142 kts 53°
2026-04-25 04:53 -34.85254 -56.05406 479 ft 141 kts 53°
2026-04-25 04:54 -34.84676 -56.04456 299 ft 140 kts 53°
2026-04-25 04:54 -34.84102 -56.03515 104 ft 141 kts 53°
2026-04-25 04:54 -34.83564 -56.02634 86 ft 120 kts 52°
2026-04-25 04:54 -34.83647 -56.02770 82 ft 126 kts 53°
2026-04-25 04:55 -34.83974 -56.03299 88 ft 140 kts 51°
2026-04-25 04:55 -34.83449 -56.02447 88 ft 110 kts 53°
2026-04-25 04:55 -34.84386 -56.03981 211 ft 141 kts 53°
2026-04-25 04:55 -34.83799 -56.03012 75 ft 135 kts 51°
2026-04-25 04:56 -34.83346 -56.02276 91 ft 99 kts 54°
2026-04-25 04:56 -34.84903 -56.04829 370 ft 142 kts 53°
2026-04-25 04:56 -34.84385 -56.03978 210 ft 141 kts 53°
2026-04-25 04:56 -34.83817 -56.03042 78 ft 135 kts 51°
2026-04-25 04:57 -34.83350 -56.02283 89 ft 100 kts 54°
2026-04-25 04:57 -34.83205 -56.02042 93 ft 5 kts 54°
2026-04-25 04:57 22.29898 113.92206 41 ft 0 kts 159°
2026-04-25 04:58 -31.39105 -63.65827 15674 ft 393 kts 90°
2026-04-25 04:58 -31.39091 -63.64909 15671 ft 375 kts 91°
2026-04-25 04:58 -31.39102 -63.65591 15698 ft 387 kts 90°
2026-04-25 04:58 -31.39635 -63.99879 8984 ft 279 kts 89°
2026-04-25 04:59 -34.97874 -56.25990 2555 ft 216 kts 55°
2026-04-25 04:59 -34.97837 -56.26059 3465 ft 205 kts 50°
2026-04-25 04:59 -34.96988 -56.24791 2557 ft 223 kts 45°
2026-04-25 04:59 -34.95977 -56.23298 1687 ft 230 kts 49°
2026-04-25 05:00 -34.95328 -56.22322 1393 ft 218 kts 50°
2026-04-25 05:00 -31.39110 -63.66161 884 ft 0 kts 90°
2026-04-25 05:00 -34.98232 -56.26765 3834 ft 204 kts 55°
2026-04-25 05:00 -34.97517 -56.25555 3733 ft 201 kts 51°
2026-04-25 05:01 -34.96946 -56.24597 3221 ft 209 kts 51°
2026-04-25 05:01 -34.97785 -56.25994 3796 ft 203 kts 51°
2026-04-25 05:01 -34.96960 -56.24624 3101 ft 209 kts 51°
2026-04-25 05:01 -34.96668 -56.24117 2258 ft 223 kts 53°
2026-04-25 05:02 -34.98347 -56.27004 3851 ft 205 kts 58°
2026-04-25 05:02 -34.97877 -56.26146 3806 ft 203 kts 51°
2026-04-25 05:02 -34.97137 -56.24932 3712 ft 200 kts 51°
2026-04-25 05:02 -34.87152 -56.08516 1092 ft 139 kts 51°
2026-04-25 05:03 -34.84767 -56.04605 328 ft 140 kts 53°
2026-04-25 05:03 -34.84233 -56.03729 153 ft 142 kts 51°
2026-04-25 05:03 -34.83662 -56.02793 74 ft 128 kts 53°
2026-04-25 05:03 -34.83246 -56.02110 91 ft 71 kts 54°
2026-04-25 05:04 -34.82987 -56.01678 102 ft 56 kts 54°
2026-04-25 05:04 -34.82780 -56.01330 111 ft 46 kts 54°
2026-04-25 05:04 -34.98280 -56.26812 3621 ft 203 kts 61°
2026-04-25 05:04 -34.83660 -56.01854 91 ft 0 kts 114°